Weather History for Miles City, MT

Change the Weather History Date:

Friday, February 3, 2012

  Actual Average Record
Temperature  
Mean Temperature 29 °F 22 °F  
Max Temperature 39 °F 32 °F 65 °F (1962)
Min Temperature 18 °F 11 °F -36 °F (1982)
Degree Days  
Heating Degree Days 36 43  
Month to date heating degree days 96 131  
Since 1 July heating degree days 3939 4727  
Cooling Degree Days 0 0  
Month to date cooling degree days 0 0  
Year to date cooling degree days 0 0  
Moisture  
Dew Point 22 °F    
Average Humidity 78    
Maximum Humidity 96    
Minimum Humidity 59    
Precipitation  
Precipitation 0.00 in 0.01 in 0.11 in (1955)
Month to date precipitation T 0.02  
Year to date precipitation 0.33 0.34  
Sea Level Pressure  
Sea Level Pressure 30.54 in    
Wind  
Wind Speed 5 mph (North)    
Max Wind Speed 10 mph    
Max Gust Speed 12 mph    
Visibility 8 miles    
Events Fog    
T = Trace of Precipitation, MM = Missing Value Source: NWS Daily Summary

Daily Weather History Graph

Daily Weather History Graph

Search for Another Location

Airport:

Trip Planner

Search our weather history database for the weather conditions in past years. The results will help you decide how hot, cold, wet, or windy it might be!

Date:

Astronomy

Feb. 03, 2012 Rise Set
Actual Time 7:24 AM MST 5:10 PM MST
Civil Twilight 6:52 AM MST 5:42 PM MST
Nautical Twilight 6:16 AM MST 6:18 PM MST
Astronomical Twilight 5:41 AM MST 6:53 PM MST
Moon 1:06 PM MST (2/3) 4:10 AM MST (2/3)
Length of Visible Light 10h 49m
Length of Day
9h 45m
Waxing Gibbous, 82% of the Moon is Illuminated
Feb 3
Waxing Gibbous
Feb 7
Full
Feb 14
Last Quarter
Feb 21
New
Feb 29
First Quarter

Hourly Weather History & Observations

Time (MST) Temp. Windchill Dew Point Humidity Pressure Visibility Wind Dir Wind Speed Gust Speed Precip Events Conditions
12:53 AM 23.0 °F 13.9 °F 19.9 °F 88% 30.49 in 10.0 mi WNW 8.1 mph - N/A   Clear
1:53 AM 21.9 °F 14.5 °F 19.0 °F 89% 30.51 in 10.0 mi NW 5.8 mph - N/A   Clear
2:53 AM 21.9 °F 13.4 °F 19.0 °F 89% 30.53 in 10.0 mi WNW 6.9 mph - N/A   Clear
3:53 AM 21.9 °F 13.4 °F 18.0 °F 85% 30.53 in 10.0 mi NW 6.9 mph - N/A   Clear
4:53 AM 21.0 °F 12.4 °F 18.0 °F 88% 30.55 in 10.0 mi WNW 6.9 mph - N/A   Clear
5:53 AM 21.0 °F 12.4 °F 18.0 °F 88% 30.56 in 10.0 mi WNW 6.9 mph - N/A   Clear
6:53 AM 19.9 °F 11.1 °F 17.1 °F 89% 30.58 in 10.0 mi WNW 6.9 mph - N/A   Clear
7:53 AM 19.9 °F 12.1 °F 17.1 °F 89% 30.61 in 10.0 mi West 5.8 mph - N/A   Clear
8:53 AM 21.9 °F 17.2 °F 19.0 °F 89% 30.62 in 10.0 mi WNW 3.5 mph - N/A   Clear
9:53 AM 26.1 °F - 21.9 °F 84% 30.62 in 10.0 mi Calm Calm - N/A   Clear
10:53 AM 30.0 °F 25.2 °F 24.1 °F 79% 30.62 in 10.0 mi NW 4.6 mph - N/A   Clear
11:42 AM 32.0 °F - 26.6 °F 80% 30.51 in 10.0 mi Calm Calm - N/A   Mostly Cloudy
11:53 AM 33.1 °F - 26.1 °F 75% 30.60 in 10.0 mi Calm Calm - N/A   Mostly Cloudy
12:21 PM 33.8 °F - 26.6 °F 75% 30.49 in 10.0 mi Calm Calm - N/A   Scattered Clouds
12:53 PM 37.0 °F - 27.0 °F 67% 30.57 in 10.0 mi Calm Calm - N/A   Scattered Clouds
1:13 PM 37.4 °F 32.1 °F 26.6 °F 65% 30.47 in 10.0 mi NW 6.9 mph - N/A   Mostly Cloudy
1:25 PM 37.4 °F - 26.6 °F 65% 30.47 in 10.0 mi Calm Calm - N/A   Scattered Clouds
1:53 PM 39.0 °F 33.4 °F 26.1 °F 60% 30.56 in 10.0 mi NNW 8.1 mph - N/A   Clear
2:53 PM 37.0 °F 32.4 °F 27.0 °F 67% 30.55 in 10.0 mi ENE 5.8 mph - N/A   Clear
3:53 PM 35.1 °F 29.3 °F 27.0 °F 72% 30.56 in 10.0 mi ENE 6.9 mph - N/A   Clear
4:53 PM 30.9 °F 25.2 °F 25.0 °F 79% 30.58 in 10.0 mi ENE 5.8 mph - N/A   Clear
5:53 PM 27.0 °F 21.6 °F 24.1 °F 89% 30.60 in 10.0 mi NE 4.6 mph - N/A   Clear
6:53 PM 26.1 °F 20.5 °F 23.0 °F 88% 30.59 in 10.0 mi NE 4.6 mph - N/A   Clear
7:53 PM 24.1 °F - 21.0 °F 88% 30.59 in 8.0 mi Calm Calm - N/A   Clear
8:53 PM 23.0 °F - 21.0 °F 92% 30.58 in 7.0 mi Calm Calm - N/A   Clear
9:53 PM 23.0 °F 18.4 °F 19.9 °F 88% 30.57 in 7.0 mi NE 3.5 mph - N/A   Clear
10:53 PM 21.9 °F 14.5 °F 19.9 °F 92% 30.56 in 6.0 mi NNE 5.8 mph - N/A   Clear
11:23 PM 21.2 °F 13.6 °F 19.4 °F 93% 30.46 in 5.0 mi NE 5.8 mph - N/A   Scattered Clouds
11:29 PM 23.0 °F 15.8 °F 21.2 °F 93% 30.46 in 2.5 mi NE 5.8 mph - N/A   Mostly Cloudy
11:32 PM 21.2 °F 13.6 °F 19.4 °F 93% 30.46 in 0.8 mi NE 5.8 mph - N/A   Mist
11:42 PM 21.2 °F 13.6 °F 19.4 °F 93% 30.46 in 0.2 mi NE 5.8 mph - N/A Fog Light Freezing Fog
11:53 PM 21.9 °F 13.4 °F 19.9 °F 92% 30.56 in 0.2 mi NNE 6.9 mph - N/A Fog Light Freezing Fog